Reno, NV

5:35 AM PDT on May 28, 2017 (GMT -0700)
Reno-Tahoe International

Weather History for KRNO - July, 2013

Change the Weather History Date:

Friday, July 12, 2013

  Actual Average Record
Temperature  
Mean Temperature 73 °F 75 °F  
Max Temperature 92 °F 92 °F 104 °F (2005)
Min Temperature 54 °F 58 °F 36 °F (1965)
Degree Days  
Heating Degree Days 0 0  
Month to date heating degree days 0 0  
Since 1 June heating degree days 16 56  
Since 1 July heating degree days 0 0  
Cooling Degree Days 8 10  
Month to date cooling degree days 188 107  
Year to date cooling degree days 451 280  
Since 1 June cooling degree days 415 243  
Growing Degree Days 23 (Base 50)    
Moisture  
Dew Point 28 °F    
Average Humidity 24    
Maximum Humidity 38    
Minimum Humidity 9    
Precipitation  
Precipitation 0.00 in 0.00 in 0.80 in (1949)
Month to date precipitation 0.21 0.06  
Year to date precipitation 1.68 4.34  
Snow  
Snow 0.00 in 0.00 in 0.00 in ()
Month to date snowfall 0.0 0.0  
Since 1 June snowfall 0.0 T  
Since 1 July snowfall 0.0 0.0  
Snow Depth 0.00 in    
Sea Level Pressure  
Sea Level Pressure 29.86 in    
Wind  
Wind Speed 7 mph (WNW)    
Max Wind Speed 26 mph    
Max Gust Speed 32 mph    
Visibility 10 miles    
Events      
T = Trace of Precipitation, MM = Missing Value Source: NWS Daily Summary

Daily Weather History Graph

Daily Weather History Graph

Search for Another Location

Airport or City:

Trip Planner

Search our weather history database for the weather conditions in past years. The results will help you decide how hot, cold, wet, or windy it might be!

Date:

Astronomy

Jul. 12, 2013 Rise Set
Actual Time 5:42 AM PDT 8:26 PM PDT
Civil Twilight 5:10 AM PDT 8:58 PM PDT
Nautical Twilight 4:30 AM PDT 9:38 PM PDT
Astronomical Twilight 3:45 AM PDT 10:23 PM PDT
Moon 10:02 AM PDT (7/12) 10:41 PM PDT (7/12)
Length of Visible Light 15h 47m
Length of Day
14h 44m
Waxing Crescent, 18% of the Moon is Illuminated
Jul 12
Waxing Crescent
Jul 15
First Quarter
Jul 22
Full
Jul 29
Last Quarter
Aug 6
New

Hourly Weather History & Observations

Time (PDT) Temp. Dew Point Humidity Pressure Visibility Wind Dir Wind Speed Gust Speed Precip Events Conditions
12:55 AM 66.9 °F 28.0 °F 23% 29.87 in 10.0 mi Calm Calm - N/A   Clear
1:55 AM 62.1 °F 28.9 °F 29% 29.88 in 10.0 mi Calm Calm - N/A   Clear
2:55 AM 62.1 °F 28.0 °F 28% 29.88 in 10.0 mi Calm Calm - N/A   Clear
3:55 AM 60.1 °F 30.0 °F 32% 29.88 in 10.0 mi Calm Calm - N/A   Clear
4:55 AM 57.9 °F 28.9 °F 33% 29.91 in 10.0 mi Calm Calm - N/A   Clear
5:55 AM 55.0 °F 30.9 °F 40% 29.91 in 10.0 mi Calm Calm - N/A   Clear
6:55 AM 60.1 °F 32.0 °F 35% 29.92 in 10.0 mi Calm Calm - N/A   Clear
7:55 AM 64.0 °F 30.9 °F 29% 29.91 in 10.0 mi Calm Calm - N/A   Clear
8:55 AM 70.0 °F 30.9 °F 24% 29.91 in 10.0 mi Calm Calm - N/A   Clear
9:55 AM 75.9 °F 28.9 °F 18% 29.88 in 10.0 mi Calm Calm - N/A   Clear
10:55 AM 81.0 °F 28.9 °F 15% 29.87 in 10.0 mi Variable 3.5 mph - N/A   Clear
11:55 AM 84.9 °F 28.0 °F 13% 29.85 in 10.0 mi Variable 4.6 mph - N/A   Partly Cloudy
12:55 PM 88.0 °F 23.0 °F 9% 29.83 in 10.0 mi Variable 4.6 mph - N/A   Partly Cloudy
1:55 PM 88.0 °F 23.0 °F 9% 29.83 in 10.0 mi WNW 5.8 mph - N/A   Partly Cloudy
2:55 PM 91.0 °F 25.0 °F 9% 29.80 in 10.0 mi NW 17.3 mph 23.0 mph N/A   Partly Cloudy
3:55 PM 90.0 °F 27.0 °F 10% 29.80 in 10.0 mi WNW 20.7 mph 26.5 mph N/A   Partly Cloudy
4:55 PM 89.1 °F 27.0 °F 11% 29.80 in 10.0 mi WNW 18.4 mph 28.8 mph N/A   Partly Cloudy
5:55 PM 87.1 °F 26.1 °F 11% 29.81 in 10.0 mi WNW 23.0 mph 29.9 mph N/A   Partly Cloudy
6:55 PM 84.0 °F 26.1 °F 12% 29.81 in 10.0 mi WNW 20.7 mph 27.6 mph N/A   Partly Cloudy
7:55 PM 81.0 °F 32.0 °F 17% 29.82 in 10.0 mi WNW 20.7 mph 26.5 mph N/A   Partly Cloudy
8:55 PM 77.0 °F 32.0 °F 19% 29.84 in 10.0 mi WNW 17.3 mph 25.3 mph N/A   Clear
9:55 PM 75.0 °F 30.9 °F 20% 29.86 in 10.0 mi NW 9.2 mph 16.1 mph N/A   Clear
10:55 PM 73.9 °F 28.0 °F 18% 29.88 in 10.0 mi NNW 3.5 mph - N/A   Clear
11:55 PM 71.1 °F 30.0 °F 22% 29.88 in 10.0 mi Calm Calm - N/A   Clear